DW1114 Weather Reports


Display with metric or nautical units.
time (UTC)temp
F
wind
direction
speed
MPH
gust
MPH
rain 1hr
in
rain 24hr
in
rain mn
in
humidity
%
barometer
mb
20201129185007 54 136 3.0 10.0 0.00 0.00 0.00 1015.3
20201129184008 53 140 5.0 8.0 0.00 0.00 0.00 1015.3
20201129183007 55 121 4.0 6.0 0.00 0.00 0.00 1015.3
20201129182006 62 150 4.0 9.0 0.00 0.00 0.00 1015.3
20201129181006 70 124 4.0 9.0 0.00 0.00 0.00 1016.0
20201129180019 62 122 3.0 6.0 0.00 0.00 0.00 1015.6
20201129175021 73 107 4.0 7.0 0.00 0.00 0.00 1016.0
20201129174008 71 104 3.0 6.0 0.00 0.00 0.00 1015.6
20201129173011 68 89 3.0 7.0 0.00 0.00 0.00 1016.3
20201129172007 71 155 3.0 5.0 0.00 0.00 0.00 1016.6
20201129171018 74 156 3.0 5.0 0.00 0.00 0.00 1016.6
20201129170007 64 175 4.0 5.0 0.00 0.00 0.00 1016.3
20201129165011 67 159 3.0 4.0 0.00 0.00 0.00 1017.0
20201129164006 60 152 3.0 5.0 0.00 0.00 0.00 1016.6
20201129163010 63 149 2.0 5.0 0.00 0.00 0.00 1017.0
20201129162007 55 141 4.0 5.0 0.00 0.00 0.00 1017.6
20201129161004 54 145 3.0 6.0 0.00 0.00 0.00 1017.6
20201129160009 59 152 2.0 4.0 0.00 0.00 0.00 1017.6
20201129155013 51 146 2.0 4.0 0.00 0.00 0.00 1017.6
20201129154007 50 145 4.0 5.0 0.00 0.00 0.00 1018.0
20201129153005 60 122 3.0 6.0 0.00 0.00 0.00 1018.3
20201129152008 53 133 2.0 5.0 0.00 0.00 0.00 1018.7
20201129151006 48 120 2.0 4.0 0.00 0.00 0.00 1018.3
20201129150012 49 118 2.0 5.0 0.00 0.00 0.00 1018.3
20201129145006 47 148 4.0 5.0 0.00 0.00 0.00 1018.3
20201129144012 43 113 3.0 4.0 0.00 0.00 0.00 1018.3
20201129143008 46 132 3.0 4.0 0.00 0.00 0.00 1018.3
20201129142009 45 140 3.0 5.0 0.00 0.00 0.00 1018.7
20201129141010 45 143 1.0 2.0 0.00 0.00 0.00 1019.0
20201129140008 45 135 0.0 0.0 0.00 0.00 0.00 1018.7
20201129135006 42 157 1.0 0.0 0.00 0.00 0.00 1018.7
20201129134012 35 154 1.0 1.0 0.00 0.00 0.00 1018.3
20201129133010 35 157 0.0 1.0 0.00 0.00 0.00 1019.0
20201129132007 36 154 1.0 1.0 0.00 0.00 0.00 1018.7
20201129131010 29 158 0.0 0.0 0.00 0.00 0.00 1018.7
20201129130007 28 135 0.0 0.0 0.00 0.00 0.00 1019.0
20201129125014 28 135 0.0 0.0 0.00 0.00 0.00 1019.0
20201129124009 28 134 1.0 1.0 0.00 0.00 0.00 1018.7
20201129123004 28 158 0.0 0.0 0.00 0.00 0.00 1018.7
20201129122007 28 135 0.0 0.0 0.00 0.00 0.00 1018.7
20201129121008 28 135 0.0 0.0 0.00 0.00 0.00 1019.0
20201129120008 27 158 0.0 0.0 0.00 0.00 0.00 1018.7
20201129115004 27 135 0.0 0.0 0.00 0.00 0.00 1018.7
20201129114010 27 113 0.0 0.0 0.00 0.00 0.00 1018.7
20201129113004 27 135 0.0 0.0 0.00 0.00 0.00 1019.0
20201129112007 28 135 0.0 0.0 0.00 0.00 0.00 1019.0
20201129111007 28 113 0.0 0.0 0.00 0.00 0.00 1018.3
20201129110004 28 158 0.0 0.0 0.00 0.00 0.00 1019.0
20201129105004 29 158 0.0 0.0 0.00 0.00 0.00 1018.7
20201129104007 31 135 0.0 1.0 0.00 0.00 0.00 1019.0
20201129103009 31 114 1.0 1.0 0.00 0.00 0.00 1019.0
20201129102014 32 106 1.0 3.0 0.00 0.00 0.00 1018.7
20201129101007 32 106 2.0 4.0 0.00 0.00 0.00 1019.3
20201129100005 32 127 1.0 3.0 0.00 0.00 0.00 1019.0
20201129095008 32 94 2.0 3.0 0.00 0.00 0.00 1019.0
20201129094001 29 112 2.0 1.0 0.00 0.00 0.00 1019.0
20201129093012 28 113 0.0 1.0 0.00 0.00 0.00 1019.0
20201129092018 29 113 1.0 2.0 0.00 0.00 0.00 1019.3
20201129091012 28 113 1.0 1.0 0.00 0.00 0.00 1019.7
20201129090014 28 113 0.0 0.0 0.00 0.00 0.00 1019.3
20201129085004 28 113 0.0 1.0 0.00 0.00 0.00 1019.7
20201129084008 28 135 0.0 0.0 0.00 0.00 0.00 1019.3
20201129083007 28 135 0.0 0.0 0.00 0.00 0.00 1019.7
20201129082007 28 135 0.0 0.0 0.00 0.00 0.00 1019.0
20201129081008 29 135 0.0 0.0 0.00 0.00 0.00 1019.7
20201129080020 29 135 0.0 0.0 0.00 0.00 0.00 1019.7
20201129075014 29 135 0.0 0.0 0.00 0.00 0.00 1019.7
20201129074014 29 135 0.0 1.0 0.00 0.00 0.00 1019.7
20201129073009 30 134 1.0 1.0 0.00 0.00 0.00 1019.0
20201129072009 29 134 1.0 1.0 0.00 0.00 0.00 1019.3
20201129071009 29 135 0.0 1.0 0.00 0.00 0.00 1019.3
20201129070009 30 135 0.0 0.0 0.00 0.00 0.00 1019.0
20201129065006 30 135 1.0 1.0 0.00 0.00 0.00 1019.0
20201129064005 30 134 1.0 1.0 0.00 0.00 0.00 1019.3
20201129063011 30 113 0.0 1.0 0.00 0.00 0.00 1019.0
20201129062020 30 113 1.0 1.0 0.00 0.00 0.00 1019.3
20201129061012 31 114 1.0 1.0 0.00 0.00 0.00 1019.3
20201129060020 31 157 1.0 1.0 0.00 0.00 0.00 1019.3
20201129055016 31 135 0.0 0.0 0.00 0.00 0.00 1019.7
20201129054007 31 135 0.0 2.0 0.00 0.00 0.00 1020.0
20201129053009 32 134 2.0 1.0 0.00 0.00 0.00 1020.0
20201129052006 32 128 1.0 1.0 0.00 0.00 0.00 1020.4
20201129051008 32 112 0.0 1.0 0.00 0.00 0.00 1020.4
20201129050009 32 135 0.0 0.0 0.00 0.00 0.00 1020.7
20201129045021 32 113 0.0 0.0 0.00 0.00 0.00 1020.4
20201129044004 33 113 0.0 0.0 0.00 0.00 0.00 1020.7
20201129043019 34 102 0.0 1.0 0.00 0.00 0.00 1020.7
20201129042020 36 95 0.0 3.0 0.00 0.00 0.00 1020.4
20201129041009 36 90 1.0 3.0 0.00 0.00 0.00 1020.7
20201129040007 36 87 2.0 2.0 0.00 0.00 0.00 1020.7
20201129035008 36 91 2.0 3.0 0.00 0.00 0.00 1021.0
20201129034010 37 91 2.0 4.0 0.00 0.00 0.00 1020.7
20201129033006 36 92 2.0 3.0 0.00 0.00 0.00 1020.7